Location: Daerah Kuala Lumpur
(3.1167°N, 101.6833°E)
Time: 16:44:03
(UTC+00:00)

ATLAS 3B R/B - Pass Details

Date: 05 August 2024
Orbit: 940 x 1254 km, 63.8° (Epoch: 18 September)

Event Time Altitude Azimuth Distance (km) Brightness Sun altitude
Rises 22:26:55 0° 319° (NW) 4,137 5.5 -11.6°
Reaches altitude 10° 22:30:02 10° 310° (NW) 3,140 4.8 -10.8°
Maximum altitude 22:36:37 33° 249° (WSW) 1,829 3.4 -9.3°
Drops below altitude 10° 22:42:51 10° 187° (S) 2,956 4.8 -7.8°
Sets 22:45:44 0° 178° (S) 3,864 5.5 -7.1°
